Regional Weather Roundup
Issued by NWS

Home | Current Version | Previous Version | Text Only | Print | Product List | Glossary Off
Versions: 1 2 3 4 5 6 7 8 9 10 11 12 13 14 15 16 17 18 19 20 21 22 23 24 25 26 27 28 29 30 31 32 33 34 35 36 37 38 39 40 41 42 43 44 45 46 47 48 49 50

000
ASUS45 KCYS 271710
RWRWY

WYOMING REGIONAL WEATHER ROUNDUP
NATIONAL WEATHER SERVICE CHEYENNE WY
1100 AM MDT MON JUL 27 2015

NOTE:  "FAIR" INDICATES FEW OR NO CLOUDS BELOW 12,000 FEET
WITH NO SIGNIFICANT WEATHER AND/OR OBSTRUCTIONS TO VISIBILITY.

WYZ001-271800-
YELLOWSTONE NATIONAL PARK

CITY           SKY/WX    TMP DP  RH WIND       PRES   REMARKS
LK YELLOWSTONE   N/A     65  38  36 W9G16     29.99F
W YELLOWSTONE  NOT AVBL

$$
WYZ002>013-054>058-071-098>099-271800-
NORTHERN WYOMING

CITY           SKY/WX    TMP DP  RH WIND       PRES   REMARKS
JACKSON        FAIR      66  45  45 S8        29.93S
CODY           FAIR      63  52  67 N14       29.85F
GREYBULL       FAIR      78  47  33 VRB3      29.77F
WORLAND        FAIR      76  47  35 N6        29.80F
SHERIDAN       FAIR      72  53  51 NW9G20    29.80F
BUFFALO        FAIR      72  50  45 N8        29.84F
GILLETTE       FAIR      79  48  33 NW3       29.79F
HULETT         FAIR      79  52  38 S16G23    29.80S
NEWCASTLE      FAIR      82  50  32 MISG      29.83F

$$
WYZ014>020-022>026-101>103-271800-
CENTRAL WYOMING

CITY           SKY/WX    TMP DP  RH WIND       PRES   REMARKS
BIG PINEY      FAIR      76  32  20 SW16G23   29.97F
PINEDALE       FAIR      73  27  17 S14G24    29.98F
DUBOIS         FAIR      72  30  21 E6        29.93F
LANDER         FAIR      85  36  17 S23       29.82F
RIVERTON       FAIR      83  41  22 S12       29.84F
CASPER         FAIR      89  40  17 S21G30    29.86F
DOUGLAS        FAIR      84  45  25 S7        29.86F

$$
WYZ021-027>030-104>119-271800-
SOUTHERN WYOMING

CITY           SKY/WX    TMP DP  RH WIND       PRES   REMARKS
EVANSTON       FAIR      75  23  14 SW30G39   29.99F
KEMMERER       FAIR      73  21  14 SW25G32   30.00F
FORT BRIDGER   SUNNY     79  23  12 SW26G35   30.02F
ROCK SPRINGS   FAIR      80  33  18 SW28G37   29.96F
DIXON          FAIR      82  43  25 S15G25    30.03F
RAWLINS        FAIR      78  39  24 S18G31    30.01F
SARATOGA       FAIR      82  36  18 S15G24    30.05F
LARAMIE        FAIR      81  40  23 W22G29    30.06F
CHEYENNE       FAIR      86  43  22 W10       29.98F
TORRINGTON     FAIR      84  57  39 SE5       29.84S
PINE BLUFFS    FAIR      82  54  36 W3        29.92F

$$


USA.gov is the U.S. government's official web portal to all federal, state and local government web resources and services.